Flag for Tunisia Weather past 2 weeks in Kairouan, Tunisia

Now
63 °F

Passing clouds.


Feels Like: 63 °F
Forecast: 55 / 72 °F
Wind: 9 mph from Northwest

Location: Kairouan Airport

Current Time: Apr 1, 2015 at 11:10:47 PM

Latest Report: Apr 1, 2015 at 10:00 PM


Visibility: N/A

Pressure: 30.18 "Hg

Humidity: 30%

Dew point: 30 °F

Location of KairouanLocation

Historic Weather in Kairouan — Graph

°F

Kairouan temperature yesterday

Maximum temperature yesterday: 81 °F (at 1:00 PM)
Minimum temperature yesterday: 66 °F (at 3:00 AM)
Average temperature yesterday: 72 °F

Past Weeks' High & Low Weather Summary

 TemperatureHumidityPressure
High81 °F (Mar 31, 1:00 PM)100% (Mar 21, 12:00 PM)30.18 "Hg (Mar 21, 12:00 PM)
Low48 °F (Mar 18, 7:00 AM)28% (Mar 31, 1:00 PM)29.45 "Hg (Mar 24, 4:00 PM)
Average62 °F66%29.93 "Hg
* Reported Mar 17 9:00 PM — Apr 1 9:00 PM, Kairouan, Weather by CustomWeather, © 2015

Note: Actual official high and low records may vary slightly from our data, if they occured in-between our weather recording intervals... More about our weather records

Advertising

Kairouan weather history for previous 24 hours

 ConditionsComfort  
Time TempWeatherWind HumidityBarometerVisibility
9:00 PM
Wed, Apr 1
64 °FPassing clouds.9 mph43%30.18 "HgN/A
8:00 PM64 °FPassing clouds.9 mph52%30.15 "HgN/A
7:00 PM66 °FPassing clouds.7 mph49%30.12 "HgN/A
6:00 PM68 °FPassing clouds.9 mph49%30.12 "HgN/A
5:00 PM72 °FPassing clouds.9 mph44%30.12 "HgN/A
4:00 PM73 °FPassing clouds.9 mph41%30.12 "HgN/A
3:00 PM73 °FPassing clouds.9 mph38%30.12 "HgN/A
2:00 PM73 °FPassing clouds.7 mph41%30.15 "HgN/A
1:00 PM73 °FPassing clouds.9 mph44%30.15 "HgN/A
12:00 PM73 °FPassing clouds.12 mph38%30.18 "HgN/A
11:00 AM72 °FPassing clouds.7 mph38%30.18 "HgN/A
10:00 AM72 °FPassing clouds.5 mph36%30.18 "HgN/A
9:00 AM68 °FPassing clouds.7 mph46%30.18 "HgN/A
8:00 AM66 °FPassing clouds.12 mph52%30.15 "HgN/A
7:00 AM64 °FSunny.6 mph60%30.15 "Hg10 mi
6:00 AM61 °FClear.3 mph63%30.12 "Hg10 mi
5:00 AM61 °FClear.No wind63%30.09 "Hg10 mi
4:00 AM61 °FClear.5 mph63%30.12 "Hg10 mi
3:00 AM59 °FCool.No wind68%30.12 "HgN/A
2:00 AM63 °FClear.No wind59%30.09 "Hg10 mi
12:00 AM64 °FClear.No wind52%30.15 "Hg10 mi
11:00 PM
Tue, Mar 31
66 °FClear.No wind46%30.15 "Hg10 mi
Weather by CustomWeather, © 2015

See weather overviewHow to use our weather pages